timestamp,surface_pressure_avg,surface_temp_avg,battery_voltage,lat,long
2018-01-21 00:00:00+00:00,333.8797,2.29,12.73,47.84626,-54.09684
2018-01-21 00:10:00+00:00,344.5364,2.27,12.65,47.84626,-54.09684
2018-01-21 00:20:00+00:00,349.1447,2.2,12.73,47.84626,-54.09684
2018-01-21 00:30:00+00:00,344.3397,2.2,12.73,47.84626,-54.09684
2018-01-21 00:40:00+00:00,340.7496,2.16,12.81,47.84626,-54.09684
2018-01-21 00:50:00+00:00,343.8563,2.15,12.81,47.84626,-54.09684
2018-01-21 01:00:00+00:00,345.0913,2.13,12.73,47.84626,-54.09684
2018-01-21 01:10:00+00:00,343.5063,2.1,12.65,47.84626,-54.09684
2018-01-21 01:20:00+00:00,346.6463,2.11,12.73,47.84626,-54.09684
2018-01-21 01:30:00+00:00,349.0629,2.13,12.73,47.84626,-54.09684
2018-01-21 01:40:00+00:00,348.718,2.12,12.73,47.84626,-54.09684
2018-01-21 01:50:00+00:00,348.4796,2.13,12.73,47.84626,-54.09684
2018-01-21 02:00:00+00:00,353.5763,2.15,12.65,47.84626,-54.09684
2018-01-21 02:10:00+00:00,349.7263,2.15,12.65,47.84626,-54.09684
2018-01-21 02:20:00+00:00,344.1646,2.13,12.73,47.84626,-54.09684
2018-01-21 02:30:00+00:00,340.3646,2.13,12.73,47.84626,-54.09684
2018-01-21 02:40:00+00:00,337.528,2.1,12.73,47.84626,-54.09684
2018-01-21 02:50:00+00:00,334.483,2.1,12.73,47.84626,-54.09684
2018-01-21 03:00:00+00:00,332.1647,2.1,12.65,47.84626,-54.09684
2018-01-21 03:10:00+00:00,326.3347,2.1,12.65,47.84626,-54.09684
2018-01-21 03:20:00+00:00,320.9797,2.1,12.73,47.84626,-54.09684
2018-01-21 03:30:00+00:00,316.073,2.1,12.73,47.84626,-54.09684
2018-01-21 03:40:00+00:00,314.048,2.1,12.73,47.84626,-54.09684
2018-01-21 03:50:00+00:00,310.7696,2.0,12.73,47.84626,-54.09684
2018-01-21 04:00:00+00:00,306.9163,1.9,12.65,47.84626,-54.09684
2018-01-21 04:10:00+00:00,300.6747,1.9,12.65,47.84626,-54.09684
2018-01-21 04:20:00+00:00,300.7247,1.9,12.65,47.84626,-54.09684
2018-01-21 04:30:00+00:00,303.6863,1.87,12.65,47.84626,-54.09684
2018-01-21 04:40:00+00:00,297.143,1.85,12.73,47.84626,-54.09684
2018-01-21 04:50:00+00:00,288.293,1.86,12.73,47.84626,-54.09684
2018-01-21 05:00:00+00:00,283.3797,1.87,12.65,47.84626,-54.09684
2018-01-21 05:10:00+00:00,283.433,1.89,12.65,47.84626,-54.09684
2018-01-21 05:20:00+00:00,274.7014,1.9,12.65,47.84626,-54.09684
2018-01-21 05:30:00+00:00,259.8798,1.9,12.65,47.84626,-54.09684
2018-01-21 05:40:00+00:00,257.2131,1.9,12.65,47.84626,-54.09684
2018-01-21 05:50:00+00:00,256.4081,1.9,12.65,47.84626,-54.09684
2018-01-21 06:00:00+00:00,248.5031,1.9,12.65,47.84626,-54.09684
2018-01-21 06:10:00+00:00,243.4048,1.9,12.57,47.84626,-54.09684
2018-01-21 06:20:00+00:00,241.5364,1.9,12.65,47.84626,-54.09684
2018-01-21 06:30:00+00:00,233.1664,1.9,12.65,47.84626,-54.09684
2018-01-21 06:40:00+00:00,222.0797,1.9,12.65,47.84626,-54.09684
2018-01-21 06:50:00+00:00,219.1981,1.9,12.65,47.84626,-54.09684
2018-01-21 07:00:00+00:00,218.9931,1.9,12.65,47.84626,-54.09684
2018-01-21 07:10:00+00:00,209.1964,1.93,12.57,47.84626,-54.09684
2018-01-21 07:20:00+00:00,197.5147,1.95,12.65,47.84626,-54.09684
2018-01-21 07:30:00+00:00,196.7131,1.95,12.65,47.84626,-54.09684
2018-01-21 07:40:00+00:00,199.6064,1.98,12.65,47.84626,-54.09684
2018-01-21 07:50:00+00:00,200.9215,1.99,12.65,47.84626,-54.09684
2018-01-21 08:00:00+00:00,201.2047,2.0,12.65,47.84626,-54.09684
2018-01-21 08:10:00+00:00,199.6181,2.0,12.57,47.84626,-54.09684
2018-01-21 08:20:00+00:00,197.1731,2.0,12.65,47.84626,-54.09684
2018-01-21 08:30:00+00:00,200.0465,2.0,12.65,47.84626,-54.09684
2018-01-21 08:40:00+00:00,204.5631,1.93,12.65,47.84626,-54.09684
2018-01-21 08:50:00+00:00,202.7481,1.9,12.65,47.84626,-54.09684
2018-01-21 09:00:00+00:00,203.2314,1.8,12.57,47.84626,-54.09684
2018-01-21 09:10:00+00:00,211.6931,1.8,12.57,47.84626,-54.09684
2018-01-21 09:20:00+00:00,221.4231,1.8,12.65,47.84626,-54.09684
2018-01-21 09:30:00+00:00,221.2647,1.79,12.65,47.84626,-54.09684
2018-01-21 09:40:00+00:00,225.1531,1.76,12.65,47.84626,-54.09684
2018-01-21 09:50:00+00:00,238.2264,1.78,12.65,47.84626,-54.09684
2018-01-21 10:00:00+00:00,244.0964,1.77,12.57,47.84626,-54.09684
2018-01-21 10:10:00+00:00,243.6831,1.71,12.57,47.84626,-54.09684
2018-01-21 10:20:00+00:00,247.8631,1.7,12.65,47.84626,-54.09684
2018-01-21 10:30:00+00:00,255.8098,1.73,12.65,47.84626,-54.09684
2018-01-21 10:40:00+00:00,260.7531,1.76,12.65,47.84626,-54.09684
2018-01-21 10:50:00+00:00,265.4481,1.7,12.65,47.84626,-54.09684
2018-01-21 11:00:00+00:00,270.5864,1.7,12.57,47.84626,-54.09684
2018-01-21 11:10:00+00:00,279.1281,1.7,12.57,47.84626,-54.09684
2018-01-21 11:20:00+00:00,286.8864,1.7,12.65,47.84626,-54.09684
2018-01-21 11:30:00+00:00,292.3297,1.75,12.65,47.84626,-54.09684
2018-01-21 11:40:00+00:00,298.2714,1.8,12.65,47.84626,-54.09684
2018-01-21 11:50:00+00:00,303.2413,1.8,12.65,47.84626,-54.09684
2018-01-21 12:00:00+00:00,308.058,1.8,12.57,47.84626,-54.09684
2018-01-21 12:10:00+00:00,318.123,1.8,12.57,47.84626,-54.09684
2018-01-21 12:20:00+00:00,323.6846,1.8,12.65,47.84626,-54.09684
2018-01-21 12:30:00+00:00,326.1763,1.8,12.65,47.84626,-54.09684
2018-01-21 12:40:00+00:00,330.0764,1.8,12.65,47.84626,-54.09684
2018-01-21 12:50:00+00:00,335.9431,1.8,12.65,47.84626,-54.09684
2018-01-21 13:00:00+00:00,338.2396,1.8,12.57,47.84626,-54.09684
2018-01-21 13:10:00+00:00,340.4047,1.8,12.57,47.84626,-54.09684
2018-01-21 13:20:00+00:00,349.1063,1.8,12.65,47.84626,-54.09684
2018-01-21 13:30:00+00:00,347.453,1.8,12.65,47.84626,-54.09684
2018-01-21 13:40:00+00:00,349.538,1.8,12.65,47.84626,-54.09684
2018-01-21 13:50:00+00:00,354.3996,1.8,12.65,47.84626,-54.09684
2018-01-21 14:00:00+00:00,358.9296,1.82,12.57,47.84626,-54.09684
2018-01-21 14:10:00+00:00,362.1213,1.8,12.57,47.84626,-54.09684
2018-01-21 14:20:00+00:00,366.2263,1.8,12.65,47.84626,-54.09684
2018-01-21 14:30:00+00:00,363.0696,1.8,12.97,47.84626,-54.09684
2018-01-21 14:40:00+00:00,359.3679,1.8,13.21,47.84626,-54.09684
2018-01-21 14:50:00+00:00,361.2497,1.8,13.29,47.84626,-54.09684
2018-01-21 15:00:00+00:00,361.6546,1.8,13.37,47.84626,-54.09684
2018-01-21 15:10:00+00:00,355.6447,1.8,12.97,47.84626,-54.09684
2018-01-21 15:20:00+00:00,355.2113,1.8,14.56,47.84626,-54.09684
2018-01-21 15:30:00+00:00,361.8746,1.8,13.21,47.84626,-54.09684
2018-01-21 15:40:00+00:00,359.2496,1.8,14.88,47.84626,-54.09684
2018-01-21 15:50:00+00:00,351.5662,1.8,13.84,47.84626,-54.09684
2018-01-21 16:00:00+00:00,355.3279,1.8,13.21,47.84626,-54.09684
2018-01-21 16:10:00+00:00,354.9097,1.8,13.05,47.84626,-54.09684
2018-01-21 16:20:00+00:00,347.8646,1.79,13.37,47.84626,-54.09684
2018-01-21 16:30:00+00:00,334.5662,1.78,13.37,47.84626,-54.09684
2018-01-21 16:40:00+00:00,334.318,1.79,14.4,47.84626,-54.09684
2018-01-21 16:50:00+00:00,328.158,1.8,15.27,47.84626,-54.09684
2018-01-21 17:00:00+00:00,315.8197,1.78,14.4,47.84626,-54.09684
2018-01-21 17:10:00+00:00,306.2563,1.78,14.48,47.84626,-54.09684
2018-01-21 17:20:00+00:00,297.8713,1.79,14.64,47.84626,-54.09684
2018-01-21 17:30:00+00:00,290.4231,1.79,14.32,47.84626,-54.09684
2018-01-21 17:40:00+00:00,283.9947,1.79,14.24,47.84626,-54.09684
2018-01-21 17:50:00+00:00,280.9114,1.79,13.76,47.84626,-54.09684
2018-01-21 18:00:00+00:00,274.2581,1.79,13.21,47.84626,-54.09684
2018-01-21 18:10:00+00:00,264.8064,1.71,13.05,47.84626,-54.09684
2018-01-21 18:20:00+00:00,258.5214,1.7,13.05,47.84626,-54.09684
2018-01-21 18:30:00+00:00,249.1631,1.71,13.05,47.84626,-54.09684
2018-01-21 18:40:00+00:00,236.3697,1.7,13.05,47.84626,-54.09684
2018-01-21 18:50:00+00:00,227.6581,1.7,13.05,47.84626,-54.09684
2018-01-21 19:00:00+00:00,220.1497,1.78,12.97,47.84626,-54.09684
2018-01-21 19:10:00+00:00,210.4848,1.8,12.97,47.84626,-54.09684
2018-01-21 19:20:00+00:00,204.2181,1.83,12.97,47.84626,-54.09684
2018-01-21 19:30:00+00:00,201.3365,1.87,12.97,47.84626,-54.09684
2018-01-21 19:40:00+00:00,193.3398,1.88,12.97,47.84626,-54.09684
2018-01-21 19:50:00+00:00,187.1781,1.89,12.97,47.84626,-54.09684
2018-01-21 20:00:00+00:00,190.5164,1.89,12.97,47.84626,-54.09684
2018-01-21 20:10:00+00:00,193.5015,1.9,12.89,47.84626,-54.09684
2018-01-21 20:20:00+00:00,194.1698,1.9,12.97,47.84626,-54.09684
2018-01-21 20:30:00+00:00,199.6848,1.9,12.97,47.84626,-54.09684
2018-01-21 20:40:00+00:00,204.8615,1.9,12.97,47.84626,-54.09684
2018-01-21 20:50:00+00:00,204.0748,1.9,12.97,47.84626,-54.09684
2018-01-21 21:00:00+00:00,206.7764,1.89,12.89,47.84626,-54.09684
2018-01-21 21:10:00+00:00,219.0831,1.89,12.89,47.84626,-54.09684
2018-01-21 21:20:00+00:00,227.5215,1.88,12.97,47.84626,-54.09684
2018-01-21 21:30:00+00:00,229.5998,1.84,12.97,47.84626,-54.09684
2018-01-21 21:40:00+00:00,235.9981,1.82,12.97,47.84626,-54.09684
2018-01-21 21:50:00+00:00,248.2114,1.8,12.97,47.84626,-54.09684
2018-01-21 22:00:00+00:00,261.4531,1.8,12.89,47.84626,-54.09684
2018-01-21 22:10:00+00:00,267.468,1.72,12.81,47.84626,-54.09684
2018-01-21 22:20:00+00:00,270.1931,1.74,12.97,47.84626,-54.09684
2018-01-21 22:30:00+00:00,274.2164,1.7,12.89,47.84626,-54.09684
2018-01-21 22:40:00+00:00,276.9664,1.7,12.97,47.84626,-54.09684
2018-01-21 22:50:00+00:00,276.4964,1.69,12.97,47.84626,-54.09684
2018-01-21 23:00:00+00:00,278.7147,1.62,12.89,47.84626,-54.09684
2018-01-21 23:10:00+00:00,278.9131,1.6,12.81,47.84626,-54.09684
2018-01-21 23:20:00+00:00,282.1931,1.6,12.89,47.84626,-54.09684
2018-01-21 23:30:00+00:00,282.4415,1.6,12.89,47.84626,-54.09684
2018-01-21 23:40:00+00:00,289.0514,1.6,12.89,47.84626,-54.09684
2018-01-21 23:50:00+00:00,295.0497,1.63,12.89,47.84626,-54.09684
